User: anonymous   Login
Location: Corcelles
(46.1547°N, 4.7234°E)
Time: 08:41:00
(UTC+00:00)
Language:

Meteor 1-29 - Orbit

View from above orbital plane
View from above orbital plane
View from above satellite
View from above satellite

Ground track
Ground track

The orbit data is extracted from the following two-line orbital elements,

1 11251U 79005A   20272.87791745 +.00002044 +00000-0 +55142-4 0  9993
2 11251 097.6545 200.1118 0016956 111.4828 248.8227 15.38938968824448
Epoch (UTC): 28 September 2020 21:04:12
Eccentricity: 0.0016956
inclination: 97.6545°
perigee height: 437 km
apogee height: 461 km
right ascension of ascending node: 200.1118°
argument of perigee: 111.4828°
revolutions per day: 15.38938968
mean anomaly at epoch: 248.8227°
orbit number at epoch: 82444

The dashed part of the orbit path shows where the satellite is in the earth's shadow,  

DLR